Regional Weather Roundup
Issued by NWS

Home | Current Version | Previous Version | Text Only | Print | Product List | Glossary Off
Versions: 1 2 3 4 5 6 7 8 9 10 11 12 13 14 15 16 17 18 19 20 21 22 23 24 25 26 27 28 29 30 31 32 33 34 35 36 37 38 39 40 41 42 43 44 45 46 47 48 49 50

000
ASUS43 KLSX 191357
RWRMO

WEATHER SUMMARY FOR MISSOURI
NATIONAL WEATHER SERVICE SPRINGFIELD MO
800 AM CST THU JAN 19 2017

NOTE: "FAIR" INDICATES FEW OR NO CLOUDS BELOW 12,000 FEET WITH NO
       SIGNIFICANT WEATHER AND/OR OBSTRUCTIONS TO VISIBILITY.
       CURRENT SKY AND/OR WEATHER CONDITIONS ARE NOT AVAILABLE FOR
       CHILLICOTHE AND FARMINGTON.

MOZ001>031-035>038-043-044-053-054-191500-
...NORTHERN AND WESTERN MISSOURI...

CITY           SKY/WX    TMP DP  RH WIND       PRES   REMARKS
KANSAS CTY INT FOG       43  41  93 SE6       29.81S VSB 1/4
LEE`S SUMMIT   CLOUDY    44  43  96 S9        29.81F FOG
ST JOSEPH      CLOUDY    42  42 100 SE7       29.81F FOG
CHILLICOTHE      N/A     41  40  96 SE6       29.85S

$$
MOZ066>068-077>081-088>096-101>105-191500-
...SOUTHWEST MISSOURI...

CITY           SKY/WX    TMP DP  RH WIND       PRES   REMARKS
SPRINGFIELD    CLOUDY    44  43  96 S8        29.84S FOG
JOPLIN         CLOUDY    47  47 100 S6        29.82F FOG
BRANSON        FOG       41  41 100 CALM      29.86F VSB 1/16

$$
MOZ032>034-039>042-045>050-055>058-069>072-191500-
...CENTRAL MISSOURI...

CITY           SKY/WX    TMP DP  RH WIND       PRES   REMARKS
COLUMBIA       NOT AVBL
JEFFERSON CITY CLOUDY    44  42  93 E9        29.88F
ROLLA          FOG       42  42 100 SE7       29.87S VSB 1/2
SEDALIA        CLOUDY    45  44  97 SE7       29.86S FOG
WARRENSBURG    CLOUDY    43  43 100 SE7       29.84S FOG

$$
MOZ051-052-059>065-191500-
...EAST CENTRAL MISSOURI...

CITY           SKY/WX    TMP DP  RH WIND       PRES   REMARKS
ST LOUIS INTL  LGT RAIN  43  40  89 SE8       29.94S FOG

$$
MOZ072>076-082>087-097>100-106>115-191500-
...SOUTH CENTRAL AND SOUTHEAST MISSOURI...

CITY           SKY/WX    TMP DP  RH WIND       PRES   REMARKS
CAPE GIRARDEAU LGT RAIN  45  44  97 CALM      29.92S FOG
POPLAR BLUFF   CLOUDY    45  44  97 NE10      29.88F FOG
WEST PLAINS    FOG       43  42  97 NE3       29.86F VSB 1

$$



USA.gov is the U.S. government's official web portal to all federal, state and local government web resources and services.